TimeCST,TemperatureF,Dew PointF,Humidity,Sea Level PressureIn,VisibilityMPH,Wind Direction,Wind SpeedMPH,Gust SpeedMPH,PrecipitationIn,Events,Conditions,WindDirDegrees,DateUTC
12:13 AM,5.0,1.4,85,29.70,1.8,South,9.2,-,N/A,Snow,Light Snow,190,2013-12-10 06:13:00
12:33 AM,5.0,1.4,85,29.70,2.5,SSW,9.2,-,N/A,Snow,Light Snow,200,2013-12-10 06:33:00
12:53 AM,5.0,1.4,85,29.69,2.0,SSW,6.9,-,N/A,Snow,Light Snow,210,2013-12-10 06:53:00
1:13 AM,6.8,3.2,85,29.69,2.0,SSW,4.6,-,N/A,Snow,Light Snow,210,2013-12-10 07:13:00
1:34 AM,6.8,3.2,85,29.70,3.0,WSW,5.8,-,N/A,Snow,Light Snow,250,2013-12-10 07:34:00
1:53 AM,5.0,3.2,92,29.71,4.0,West,10.4,-,N/A,Snow,Light Snow,270,2013-12-10 07:53:00
2:13 AM,6.8,3.2,85,29.72,10.0,West,11.5,-,N/A,Snow,Light Snow,270,2013-12-10 08:13:00
2:33 AM,5.0,1.4,85,29.74,10.0,West,15.0,-,N/A,,Scattered Clouds,280,2013-12-10 08:33:00
2:53 AM,3.2,1.4,92,29.75,10.0,WNW,19.6,25.3,N/A,,Scattered Clouds,300,2013-12-10 08:53:00
3:14 AM,3.2,-0.4,85,29.78,3.0,WNW,18.4,26.5,N/A,Snow,Light Snow,290,2013-12-10 09:14:00
3:33 AM,1.4,-0.4,92,29.80,3.0,WNW,18.4,24.2,N/A,Snow,Light Snow,300,2013-12-10 09:33:00
3:53 AM,1.4,-2.2,85,29.82,5.0,WNW,18.4,24.2,N/A,,Overcast,300,2013-12-10 09:53:00
4:14 AM,-0.4,-2.2,92,29.83,3.0,WNW,19.6,23.0,N/A,Snow,Light Snow,290,2013-12-10 10:14:00
4:33 AM,-0.4,-4.0,85,29.83,1.5,WNW,23.0,-,N/A,Snow,Light Snow,300,2013-12-10 10:33:00
4:53 AM,-0.4,-5.8,78,29.85,1.8,WNW,19.6,27.6,N/A,,Overcast,290,2013-12-10 10:53:00
5:13 AM,-2.2,-7.6,78,29.87,2.5,WNW,18.4,-,N/A,Snow,Light Snow,290,2013-12-10 11:13:00
5:33 AM,-4.0,-7.6,85,29.89,2.5,WNW,17.3,-,N/A,,Overcast,290,2013-12-10 11:33:00
5:53 AM,-5.8,-9.4,84,29.90,3.0,West,15.0,-,N/A,Snow,Light Snow,280,2013-12-10 11:53:00
6:13 AM,-5.8,-9.4,84,29.91,10.0,West,17.3,-,N/A,,Overcast,280,2013-12-10 12:13:00
6:33 AM,-7.6,-11.2,84,29.92,7.0,West,16.1,20.7,N/A,,Overcast,280,2013-12-10 12:33:00
6:54 AM,-7.6,-11.2,84,29.92,10.0,West,12.7,21.9,N/A,,Mostly Cloudy,280,2013-12-10 12:54:00
7:13 AM,-7.6,-11.2,84,29.92,10.0,West,13.8,-,N/A,,Mostly Cloudy,280,2013-12-10 13:13:00
7:34 AM,-7.6,-11.2,84,29.93,10.0,West,11.5,-,N/A,,Scattered Clouds,280,2013-12-10 13:34:00
7:53 AM,-7.6,-11.2,84,29.93,10.0,West,9.2,-,N/A,,Clear,270,2013-12-10 13:53:00
8:13 AM,-7.6,-11.2,84,29.94,10.0,West,13.8,-,N/A,,Clear,260,2013-12-10 14:13:00
8:34 AM,-7.6,-11.2,84,29.95,10.0,West,12.7,-,N/A,,Scattered Clouds,260,2013-12-10 14:34:00
8:53 AM,-5.8,-9.4,84,29.95,10.0,West,12.7,-,N/A,,Mostly Cloudy,260,2013-12-10 14:53:00
9:13 AM,-5.8,-9.4,84,29.94,10.0,West,9.2,-,N/A,,Overcast,270,2013-12-10 15:13:00
9:34 AM,-4.0,-9.4,78,29.95,10.0,West,12.7,-,N/A,,Scattered Clouds,270,2013-12-10 15:34:00
9:53 AM,-2.2,-9.4,71,29.96,10.0,West,12.7,-,N/A,,Clear,270,2013-12-10 15:53:00
10:13 AM,-0.4,-7.6,72,29.96,10.0,West,13.8,-,N/A,,Clear,280,2013-12-10 16:13:00
10:34 AM,-0.4,-7.6,72,29.98,10.0,West,15.0,-,N/A,,Clear,270,2013-12-10 16:34:00
10:53 AM,1.4,-5.8,72,29.97,10.0,West,15.0,-,N/A,,Clear,270,2013-12-10 16:53:00
11:13 AM,1.4,-5.8,72,29.98,10.0,West,13.8,-,N/A,,Clear,260,2013-12-10 17:13:00
11:33 AM,3.2,-4.0,72,29.97,10.0,WSW,12.7,-,N/A,,Clear,250,2013-12-10 17:33:00
11:53 AM,3.2,-2.2,78,29.98,10.0,West,13.8,-,N/A,,Clear,260,2013-12-10 17:53:00
12:13 PM,5.0,-2.2,72,29.99,10.0,WSW,12.7,-,N/A,,Clear,250,2013-12-10 18:13:00
12:33 PM,5.0,-2.2,72,29.99,10.0,WSW,16.1,20.7,N/A,,Clear,250,2013-12-10 18:33:00
12:53 PM,6.8,-0.4,72,29.98,10.0,WSW,15.0,-,N/A,,Clear,250,2013-12-10 18:53:00
1:13 PM,6.8,-0.4,72,29.98,10.0,WSW,15.0,-,N/A,,Clear,240,2013-12-10 19:13:00
1:33 PM,6.8,-0.4,72,29.97,10.0,WSW,16.1,-,N/A,,Clear,250,2013-12-10 19:33:00
1:53 PM,6.8,-0.4,72,29.98,10.0,WSW,16.1,-,N/A,,Clear,240,2013-12-10 19:53:00
2:13 PM,6.8,-0.4,72,29.97,10.0,WSW,12.7,-,N/A,,Mostly Cloudy,250,2013-12-10 20:13:00
2:33 PM,6.8,1.4,79,29.97,10.0,WSW,10.4,-,N/A,,Overcast,250,2013-12-10 20:33:00
2:54 PM,6.8,1.4,79,29.97,10.0,SW,11.5,-,N/A,,Overcast,230,2013-12-10 20:54:00
3:13 PM,6.8,1.4,79,29.98,10.0,SW,9.2,-,N/A,,Overcast,230,2013-12-10 21:13:00
3:33 PM,6.8,1.4,79,29.98,5.0,SW,8.1,-,N/A,Snow,Light Snow,220,2013-12-10 21:33:00
3:54 PM,6.8,1.4,79,29.99,5.0,SSW,9.2,-,N/A,Snow,Light Snow,210,2013-12-10 21:54:00
4:13 PM,6.8,1.4,79,30.00,7.0,SW,8.1,-,N/A,Snow,Light Snow,230,2013-12-10 22:13:00
4:33 PM,5.0,1.4,85,30.01,7.0,SW,6.9,-,N/A,Snow,Light Snow,220,2013-12-10 22:33:00
4:54 PM,5.0,1.4,85,30.02,7.0,SSW,6.9,-,N/A,Snow,Light Snow,210,2013-12-10 22:54:00
5:13 PM,5.0,1.4,85,30.02,4.0,SSW,8.1,-,N/A,Snow,Light Snow,210,2013-12-10 23:13:00
5:33 PM,3.2,-0.4,85,30.03,5.0,SW,4.6,-,N/A,Snow,Light Snow,220,2013-12-10 23:33:00
5:54 PM,3.2,1.4,92,30.04,10.0,WSW,5.8,-,N/A,Snow,Light Snow,240,2013-12-10 23:54:00
6:13 PM,6.8,3.2,85,30.04,10.0,WSW,8.1,-,N/A,,Overcast,250,2013-12-11 00:13:00
6:33 PM,6.8,3.2,85,30.05,7.0,West,8.1,-,N/A,,Overcast,260,2013-12-11 00:33:00
6:54 PM,6.8,5.0,92,30.07,10.0,West,8.1,-,N/A,,Overcast,270,2013-12-11 00:54:00
7:13 PM,8.6,3.2,79,30.09,10.0,NW,13.8,-,N/A,,Mostly Cloudy,310,2013-12-11 01:13:00
7:33 PM,6.8,1.4,79,30.10,5.0,NW,11.5,-,N/A,Snow,Light Snow,320,2013-12-11 01:33:00
7:53 PM,3.2,-0.4,85,30.12,10.0,NW,10.4,-,N/A,,Mostly Cloudy,310,2013-12-11 01:53:00
8:13 PM,3.2,-2.2,78,30.14,10.0,NNW,15.0,20.7,N/A,,Scattered Clouds,330,2013-12-11 02:13:00
8:33 PM,1.4,-4.0,78,30.16,10.0,NW,12.7,-,N/A,,Scattered Clouds,320,2013-12-11 02:33:00
8:53 PM,1.4,-5.8,72,30.17,10.0,NW,10.4,-,N/A,,Clear,320,2013-12-11 02:53:00
9:13 PM,-0.4,-5.8,78,30.19,10.0,NW,8.1,-,N/A,,Clear,320,2013-12-11 03:13:00
9:34 PM,-2.2,-7.6,78,30.20,10.0,NW,8.1,-,N/A,,Clear,310,2013-12-11 03:34:00
9:53 PM,-2.2,-7.6,78,30.21,10.0,NW,10.4,-,N/A,,Clear,310,2013-12-11 03:53:00
10:13 PM,-5.8,-9.4,84,30.23,10.0,NW,11.5,-,N/A,,Clear,310,2013-12-11 04:13:00
10:34 PM,-4.0,-9.4,78,30.24,10.0,NW,9.2,-,N/A,,Clear,320,2013-12-11 04:34:00
10:53 PM,-4.0,-9.4,78,30.25,10.0,NW,8.1,-,N/A,,Clear,320,2013-12-11 04:53:00
11:13 PM,-7.6,-11.2,84,30.27,10.0,NW,8.1,-,N/A,,Clear,320,2013-12-11 05:13:00
11:34 PM,-5.8,-11.2,77,30.28,10.0,NW,9.2,-,N/A,,Clear,320,2013-12-11 05:34:00
11:53 PM,-9.4,-14.8,77,30.30,10.0,NW,9.2,-,N/A,,Clear,310,2013-12-11 05:53:00